Location: Northcutt
(34.7304°N, 84.4305°W)
Time: 18:28:39
(UTC+00:00)

SR - Pass Details

Date: 07 October 2022
Orbit: 577 x 874 km, 66.7° (Epoch: 05 December)

Event Time Altitude Azimuth Distance (km) Brightness Sun altitude
Rises 23:51:53 0° 167° (SSE) 3,381 ? -8.5°
Reaches altitude 10° 23:54:52 10° 152° (SSE) 2,482 ? -9.1°
Maximum altitude 23:59:05 21° 105° (ESE) 1,847 ? -9.9°
Drops below altitude 10° 00:03:22 10° 58° (ENE) 2,527 ? -10.8°
Enters shadow 00:04:40 - 51° (NE) 2,902 ? -11.1°
Sets 00:06:26 0° 44° (NE) 3,461 - -11.4°
